Regional Weather Roundup
Issued by NWS

Home | Current Version | Previous Version | Graphics & Text | Print | Product List | Glossary Off
Versions: 1 2 3 4 5 6 7 8 9 10 11 12 13 14 15 16 17 18 19 20 21 22 23 24 25 26 27 28 29 30 31 32 33 34 35 36 37 38 39 40 41 42 43 44 45 46 47 48 49 50

615
ASUS45 KBOU 282107
RWRCO

WEATHER ROUNDUP FOR COLORADO
NATIONAL WEATHER SERVICE DENVER/BOULDER CO
300 PM MDT SUN MAY 28 2017

NOTE: "FAIR" INDICATES FEW OR NO CLOUDS BELOW 12000 FEET WITH NO
SIGNIFICANT WEATHER AND/OR OBSTRUCTIONS TO VISIBILITY.

COZ001>005-013-030-031-282200-
...NORTHWEST COLORADO...

CITY           SKY/WX    TMP DP  RH WIND       PRES   REMARKS
CRAIG          FAIR      66  26  22 VRB3      30.29F
HAYDEN         FAIR      63  25  23 CALM      30.30F
MEEKER         FAIR      68  26  20 VRB5      30.27F
RABBIT EARS PA NOT AVBL
STEAMBOAT SPGS NOT AVBL
WALDEN         NOT AVBL
$$

COZ006>008-011-282200-
...WEST CENTRAL VALLEYS...

CITY           SKY/WX    TMP DP  RH WIND       PRES   REMARKS
GRAND JUNCTION FAIR      75  20  12 VRB7G16   30.18F
MONTROSE       FAIR      71  10   9 N7        30.24F
EAGLE          NOT AVBL
RIFLE          FAIR      74  15  10 NE8       30.22F
DELTA          FAIR      77  20  12 SW8       30.20F
NUCLA          FAIR      73  12   9 N3        30.26F
$$

COZ017>023-064>068-282200-
...SOUTHWEST COLORADO...

CITY           SKY/WX    TMP DP  RH WIND       PRES   REMARKS
DURANGO        FAIR      70  10  10 MISG      30.24F
CORTEZ         FAIR      74  16  11 S9        30.22F
PAGOSA SPRINGS PTSUNNY   67   8   9 CALM      30.30F
TELLURIDE      FAIR      63  14  15 W3        30.38S
WOLF CREEK PAS NOT AVBL
$$

COZ009-010-012-014-032>034-037-058>063-282200-
...CENTRAL COLORADO...

CITY           SKY/WX    TMP DP  RH WIND       PRES   REMARKS
ASPEN          FAIR      63  22  20 NW10      30.30F
BUENA VISTA    FAIR      63   9  12 CALM      30.30F
COPPER MTN     NOT AVBL
BERTHOUD PASS  NOT AVBL
COTTONWOOD PAS NOT AVBL
GUNNISON       FAIR      63   1   8 E7        30.30F
KREMMLING      NOT AVBL
LEADVILLE      FAIR      53  14  21 N5        30.39F
SALIDA         FAIR      68   8   9 CALM      30.35F
SUNLIGHT       NOT AVBL
WILKERSON PASS NOT AVBL
$$

COZ069>075-282200-
...SAN LUIS VALLEY/SANGRE DE CRISTO MOUNTAINS...

CITY           SKY/WX    TMP DP  RH WIND       PRES   REMARKS
ALAMOSA        FAIR      64  12  13 E9        30.29F
DEL NORTE      NOT AVBL
LA VETA PASS   NOT AVBL
SAGUACHE       NOT AVBL
$$

COZ035-036-038>040-282200-
...NORTHERN COLORADO FRONT RANGE...

CITY           SKY/WX    TMP DP  RH WIND       PRES   REMARKS
DENVER INTL AP FAIR      69  34  27 NW5       30.23F
DMNS CITY PARK   N/A     69  33  26 NE14      30.23F
AURORA         MOSUNNY   69  33  26 NW7       30.25F
FRONT RANGE AP MOSUNNY   68  34  28 N5G17     30.25F
ERIE MUNI ARPT NOT AVBL
BOULDER MUN AP NOT AVBL
CENTENNIAL     FAIR      67  33  28 VRB3      30.25F
BROOMFIELD     PTSUNNY   68  32  26 CALM      30.25F
FORT COLLINS   PTSUNNY   67  33  28 SW10      30.22S
LONGMONT       NOT AVBL
$$

COZ041-046-047-076>085-087-088-282200-
...PIKES PEAK/PALMER DIVIDE AND SOUTHERN FOOTHILLS...

CITY           SKY/WX    TMP DP  RH WIND       PRES   REMARKS
COLO. SPRINGS  FAIR      67  27  22 SE8       30.27F
A. F. ACADEMY  FAIR      64  28  25 NE5       30.27F
SCHRIEVER AFB  FAIR      66  29  25 N9        30.28F
CHEYENNE MTN   PTSUNNY   61  26  26 E6        30.26S
ELLICOTT       FAIR     N/A N/A N/A CALM      30.27F
FALCON         FAIR      65  27  24 NE8G16    30.31F
FORT CARSON    FAIR      68  30  24 SW6       30.26F
LIMON          FAIR      67  35  30 NW8       30.25F
MONUMENT HILL  NOT AVBL
CANON CITY     NOT AVBL
WALSENBURG     FAIR      68  36  30 SE7       30.27F
TRINIDAD       FAIR      66  29  24 VRB3      30.27F
$$

COZ042>045-048>051-090-091-282200-
...NORTHEAST COLORADO...

CITY           SKY/WX    TMP DP  RH WIND       PRES   REMARKS
GREELEY ARPT   FAIR      72  33  24 N10       30.20F
AKRON          PTSUNNY   71  34  25 NW9G17    30.19F
BURLINGTON     FAIR      70  38  31 N5        30.18F
WRAY           FAIR      79  32  18 NW9G29    30.14S
YUMA           NOT AVBL
STERLING       NOT AVBL
HOLYOKE        NOT AVBL
FORT MORGAN    PTSUNNY   72  29  20 N10       30.19F
$$

COZ086-089-092>099-282200-
...SOUTHEAST COLORADO...

CITY           SKY/WX    TMP DP  RH WIND       PRES   REMARKS
PUEBLO         FAIR      72  32  23 MISG      30.22F
LA JUNTA       FAIR      74  36  25 VRB6      30.21S
LAMAR          FAIR      76  38  25 NW8G16    30.16F
SPRINGFIELD      N/A     71  38  29 NW14      30.21F
$$




USA.gov is the U.S. government's official web portal to all federal, state and local government web resources and services.